This is the latest recevied weather packets stored in our database for station/object HASTNG-WX. If no packets are shown the sender has not sent any weather packets the latest 1 day(s).
| Time | Temp. | Humidity | Pressure | Rain* | Wind** | Luminosity | Snow |
|---|---|---|---|---|---|---|---|
| 1778013050 | 12.22° C | 31% | 979.1 hPa | 0 mm | 6.26 m/s, 276° | - | - |
| 1778012130 | 12.22° C | 31% | 979.1 hPa | 0 mm | 6.26 m/s, 275° | - | - |
| 1778011257 | 12.78° C | 31% | 979.1 hPa | 0 mm | 6.26 m/s, 277° | - | - |
| 1778010329 | 12.78° C | 35% | 979.1 hPa | 0 mm | 6.71 m/s, 275° | - | - |
| 1778009446 | 12.78° C | 35% | 979.1 hPa | 0 mm | 6.26 m/s, 267° | - | - |
| 1778008532 | 12.78° C | 35% | 979.1 hPa | 0 mm | 6.26 m/s, 267° | - | - |
| 1778007656 | 12.78° C | 35% | 979.1 hPa | 0 mm | 5.81 m/s, 267° | - | - |
| 1778006732 | 12.78° C | 34% | 979.6 hPa | 0 mm | 6.26 m/s, 265° | - | - |
| 1778005854 | 13.33° C | 36% | 979 hPa | 0 mm | 5.81 m/s, 270° | - | - |
| 1778004932 | 13.33° C | 36% | 979 hPa | 0 mm | 5.36 m/s, 272° | - | - |
| 1778004062 | 13.33° C | 36% | 979 hPa | 0 mm | 5.81 m/s, 269° | - | - |
| 1778003131 | 12.78° C | 40% | 978.3 hPa | 0 mm | 5.81 m/s, 267° | - | - |
| 1778002248 | 12.22° C | 38% | 977.6 hPa | 0 mm | 5.36 m/s, 274° | - | - |
| 1778001332 | 12.78° C | 38% | 977.6 hPa | 0 mm | 5.36 m/s, 279° | - | - |
| 1778000460 | 12.22° C | 38% | 977.6 hPa | 0 mm | 5.36 m/s, 277° | - | - |
| 1777999532 | 11.67° C | 43% | 978.2 hPa | 0 mm | 5.81 m/s, 276° | - | - |
| 1777998651 | 11.11° C | 46% | 976.6 hPa | 0 mm | 5.36 m/s, 278° | - | - |
| 1777997732 | 11.11° C | 46% | 976.6 hPa | 0 mm | 4.92 m/s, 272° | - | - |
| 1777996863 | 11.11° C | 46% | 976.6 hPa | 0 mm | 5.36 m/s, 273° | - | - |
| 1777995929 | 10° C | 53% | 978.3 hPa | 0 mm | 5.36 m/s, 276° | - | - |
| 1777995053 | 10.56° C | 49% | 977.3 hPa | 0 mm | 5.81 m/s, 278° | - | - |
| 1777994132 | 10.56° C | 49% | 977.3 hPa | 0 mm | 5.81 m/s, 280° | - | - |
| 1777993267 | 10.56° C | 49% | 977.3 hPa | 0 mm | 5.81 m/s, 275° | - | - |
| 1777992332 | 10.56° C | 75% | 977.2 hPa | 0.25 mm | 5.36 m/s, 274° | - | - |
| 1777991451 | 11.11° C | 55% | 977.2 hPa | 0.25 mm | 5.81 m/s, 274° | - | - |
* Rain latest hour (hover to see other rain measurements)
** Current wind speed in m/s (hover to see current wind gust speed)